Location: Chizeray
(47.0113°N, 0.3612°E)
Time: 17:56:45
(UTC+00:00)

Daily predictions for brighter satellites

Satellite Brightness Start Highest point End
(mag) Time Altitude Azimuth Time Altitude Azimuth Time Altitude Azimuth
Cosmos 2180 Rocket 4.5 17:20:25 10° S 17:26:33 82° E 17:32:42 10° N
Radarsat Rocket 4.2 17:21:30 10° SE 17:27:24 60° ENE 17:34:00 10° NNW
CZ-2C R/B 4.0 17:24:13 10° N 17:29:27 44° WNW 17:34:43 10° SW
SMAP 3.4 17:25:16 10° S 17:29:55 76° WSW 17:34:35 10° NNW
COBE Rocket 3.9 17:25:32 10° SSE 17:30:17 90° SSW 17:34:58 10° NNW
DELTA 2 DEB (DPAF) 4.2 17:29:49 10° NNE 17:34:09 58° ESE 17:38:29 10° S
Cosmos 2263 Rocket 2.5 17:28:39 10° NNW 17:34:14 76° WSW 17:39:47 10° SSE
SL-08 RB Rocket 3.9 17:30:13 10° SSE 17:34:50 82° WSW 17:39:32 10° NNW
Cosmos 1238 Rocket 4.5 17:33:42 10° NNW 17:38:34 55° W 17:44:11 10° S
Cosmos 540 Rocket 4.5 17:35:36 10° N 17:39:53 25° NE 17:44:07 10° ESE
Lacrosse 5 2.8 17:38:26 10° S 17:42:55 32° SE 17:47:26 10° ENE
Gblst 52 Del rocket 4.4 17:38:28 10° SW 17:44:05 58° SE 17:49:25 10° ENE
NOSS 2-1 (E) 4.5 17:40:01 10° NW 17:44:27 66° SW 17:50:43 10° SSE
SKYMED 2 4.0 17:40:23 10° NNE 17:44:30 40° E 17:48:35 10° SSE
SL-08 R/B 3.4 17:42:59 10° NNE 17:47:57 87° ESE 17:52:54 10° SSW
BREEZE-M DEB (TANK) 3.9 17:47:16 10° WNW 17:53:53 42° SW 17:56:38 10° SSE
Cosmos 1607 4.2 17:47:57 10° SW 17:54:04 70° NW 18:00:16 10° NE
Timation 2 Rocket 4.2 17:48:53 10° NNW 17:55:07 79° WSW 18:01:35 10° SSE
YAOGAN 1 3.4 17:52:06 10° SE 17:55:47 28° ENE 17:59:30 10° N
Cosmos 1328 3.7 17:54:04 10° S 17:58:01 73° E 18:02:00 10° NNE
Cosmos 407 Rocket 3.5 17:52:58 10° SSW 17:58:08 87° WNW 18:03:17 10° NNE
BREEZE M DEB (TANK) 3.4 17:56:08 10° WNW 18:02:07 59° SSW 18:04:46 10° SE
Lacrosse 5 rocket 2.2 17:59:19 10° NW 18:02:23 26° NNE 18:04:27 16° ENE
DMSP B5D2-2 4.1 17:57:15 10° NNE 18:02:35 89° ESE 18:07:51 10° SSW
Cosmos 1844 Rocket 2.9 17:59:45 10° NNW 18:05:07 45° NE 18:10:27 10° SE
APEX 4.2 17:59:36 10° SSW 18:05:41 76° ESE 18:11:21 10° NNE
CZ-4B DEB 4.2 18:00:44 10° SSE 18:06:07 66° ENE 18:11:33 10° N
Cosmos 1536 Rocket 3.7 18:01:54 10° SSW 18:06:13 79° W 18:10:34 10° N
CZ-4 R/B 2.5 18:03:58 10° ESE 18:07:13 23° ENE 18:10:26 10° NNE
Cosmos 1140 Rocket 4.0 18:04:31 10° SW 18:09:37 61° WNW 18:14:45 10° NNE
CZ-4B R/B 3.6 18:05:01 10° SE 18:09:58 39° ENE 18:14:59 10° N
Cosmos 1190 Rocket 4.0 18:11:43 10° SSW 18:17:02 86° ESE 18:22:22 10° NNE
Cosmos 1844 3.9 18:12:16 10° NNW 18:17:55 50° NE 18:23:30 10° SE
CZ-4C R/B 3.1 18:14:25 10° NNE 18:18:18 76° ESE 18:21:57 10° S
Cosmos 1408 2.8 18:14:59 10° SSW 18:18:21 63° W 18:21:46 10° N
Cosmos 1606 Rocket 3.4 18:14:25 10° N 18:18:43 65° E 18:23:01 10° SSE
RESURS DK-1 3.0 18:15:44 10° NNW 18:19:32 35° NE 18:21:56 19° ESE
ISS -2.6 18:17:48 10° WNW 18:21:02 42° SW 18:24:14 10° SE
Cosmos 1633 2.9 18:18:31 10° SSE 18:21:34 34° E 18:23:16 20° NE
Cosmos 2278 4.3 18:16:17 10° SW 18:21:53 59° WNW 18:27:32 10° NNE
Cosmos 2228 3.4 18:18:20 10° NNW 18:22:32 63° W 18:26:42 10° S
YAOGAN 3 4.5 18:20:00 10° SSE 18:24:20 82° ENE 18:28:42 10° NNW
Cosmos 2360 Rocket 2.6 18:20:46 10° S 18:26:01 42° ESE 18:30:24 15° NE
Cosmos 1892 2.6 18:22:20 10° S 18:26:02 87° W 18:29:49 10° N
Cosmos 2219 Rocket 3.4 18:23:07 10° SE 18:27:03 20° E 18:27:04 20° E
Cosmos 1892 Rocket 3.8 18:26:01 10° SSE 18:30:16 47° E 18:34:29 10° NNE
Cosmos 2333 Rocket 2.9 18:26:00 10° SSE 18:30:52 31° ESE 18:33:10 23° ENE
COSMO-SKYMED 1 3.0 18:28:15 10° N 18:32:35 65° WNW 18:36:52 10° SSW
Cosmos 2278 Rocket 3.9 18:30:00 10° N 18:33:12 15° NE 18:33:33 15° NE
Cosmos 2322 Rocket 2.1 18:31:50 10° SSW 18:37:25 74° ESE 18:42:51 11° NNE
Cosmos 1825 1.9 18:35:49 10° S 18:39:29 82° E 18:43:12 10° N
Feng Yun 1-1 Rocket 4.4 18:34:40 10° SE 18:39:57 47° ENE 18:45:09 10° N
SL-4 R/B 2.5 18:39:02 10° WNW 18:42:22 38° N 18:43:14 33° NE
COSMOS 2455 4.5 18:37:27 10° W 18:42:38 29° NW 18:47:52 10° NNE
Cosmos 1244 Rocket 4.5 18:37:12 10° N 18:43:36 86° E 18:49:53 10° S
Cosmos 468 Rocket 4.0 18:40:43 10° NNW 18:45:55 83° WSW 18:51:02 10° SSE
BlueWalker 3 3.1 18:46:50 10° WNW 18:50:22 32° N 18:51:11 29° NNE
Cosmos 1726 Rocket 3.6 18:46:57 10° NNW 18:51:16 75° W 18:55:33 10° S
SL-16 R/B 2.6 18:45:45 10° SW 18:51:22 65° WNW 18:57:02 10° NNE
Cosmos 2333 4.5 18:47:40 10° S 18:52:55 43° ESE 18:54:40 33° ENE
In-Cosmos 22 Rocket 4.3 18:47:15 10° S 18:53:03 87° W 18:58:56 10° N
Cosmos 1954 Rocket 4.3 18:49:54 10° SSW 18:55:08 67° WNW 19:00:21 10° NNE
Cosmos 1745 Rocket 4.0 18:50:55 10° N 18:57:05 56° ENE 19:03:08 10° SSE
ATLAS 5 CENTAUR R/B 4.1 18:56:37 10° N 18:57:22 10° N 18:58:08 10° N
CSL-04 Debris 4.5 18:56:13 35° ESE 18:57:35 42° ENE 19:02:38 10° N
Okean O Rocket 1.4 18:55:28 10° SSE 18:59:49 72° ENE 19:04:15 10° N
Cosmos 1386 Rocket 4.3 18:56:38 10° N 19:02:37 66° E 19:08:36 10° SSE
Cosmos 1340 2.4 18:59:21 10° N 19:02:56 76° NE 19:02:56 76° NE
ATLAS CENTAUR R/B 3.8 18:59:56 10° W 19:03:23 20° NW 19:06:27 11° NNE
Cosmos 1763 Rocket 4.5 18:59:48 10° NNW 19:04:44 46° WSW 19:09:36 10° S
CSL-04 Rocket 3.9 19:04:35 42° ENE 19:04:49 43° ENE 19:09:53 10° N
Cosmos 1980 Rocket 4.5 19:01:33 10° W 19:05:32 19° NW 19:09:32 10° N
Cosmos 1850 Rocket 4.0 19:00:54 10° S 19:05:56 55° ESE 19:07:01 46° ENE
IRIDIUM 104 4.4 19:03:37 10° N 19:08:52 80° W 19:14:04 10° S
Cosmos 44 Rocket 4.1 19:04:41 10° S 19:07:45 32° SSE 19:07:45 32° SSE
Meteor 1-27 4.3 19:05:05 10° NNW 19:10:54 80° W 19:16:36 10° S
Cosmos 1741 Rocket 4.0 19:07:57 10° S 19:13:10 61° ESE 19:14:11 51° ENE
Cosmos 1869 3.7 19:11:07 10° NNW 19:14:58 61° W 19:18:50 10° S
Cosmos 1709 Rocket 4.0 19:09:44 10° N 19:15:43 50° ENE 19:16:27 48° E
Cosmos 841 Rocket 3.4 19:11:16 10° NNW 19:16:35 87° ENE 19:19:11 31° SSE
ATLAS 2AS CENTAUR R/B 3.5 19:10:02 10° NW 19:16:40 48° WSW 19:22:55 10° S
Cosmos 1943 Rocket 4.3 19:15:15 10° N 19:16:34 12° NNE 19:16:34 12° NNE
Cosmos 1461 3.3 19:15:26 10° SW 19:19:40 62° NW 19:20:38 48° N
Cosmos 1553 Rocket 4.1 19:15:22 10° SSW 19:21:26 72° W 19:27:36 10° N
Genesis I 3.6 19:17:29 10° SW 19:20:44 59° SSW 19:20:44 59° SSW
Cosmos 540 Rocket 4.2 19:16:46 10° NNW 19:21:45 51° WSW 19:26:42 10° S
Cosmos 1417 Rocket 4.4 19:18:15 10° S 19:24:32 89° E 19:30:47 10° N
Lacrosse 5 2.2 19:20:36 10° WSW 19:25:40 62° NNW 19:26:44 50° NNE
Cosmos 2058 Rocket 3.6 19:21:51 10° NNW 19:26:10 57° W 19:30:29 10° S
YAOGAN 1 4.4 19:27:56 10° SSW 19:31:47 31° W 19:35:40 10° NNW
Gblst 52 Del rocket 4.3 19:30:19 10° W 19:35:49 61° NNW 19:36:23 58° NNE
Cosmos 883 Rocket 4.4 19:32:13 10° S 19:38:25 68° E 19:44:42 10° NNE
Lacrosse 5 rocket 2.8 19:37:55 10° NW 19:39:53 30° WNW 19:39:53 30° WNW
CZ-4 R/B 2.9 19:38:06 10° SSW 19:41:55 36° W 19:45:43 10° NNW
BREEZE-M DEB (TANK) 3.6 19:38:29 10° W 19:42:31 71° S 19:44:07 53° SE
Cosmos 1844 Rocket 4.3 19:43:59 10° NW 19:48:49 31° WSW 19:53:37 10° SSW
S3M 4.3 19:49:47 10° SSW 19:56:08 67° W 20:02:31 10° N
RESURS DK-1 4.4 19:53:56 10° NW 19:57:20 25° WSW 19:57:49 25° WSW
Cosmos 2360 Rocket 3.5 20:04:55 10° WSW 20:10:05 36° NW 20:12:13 27° N
Atlas Centaur 2 4.4 20:03:54 10° SW 20:09:34 23° S 20:09:34 23° S
Cosmos 2219 Rocket 2.9 20:04:50 10° SW 20:08:53 47° SW 20:08:53 47° SW
Cosmos 2333 Rocket 3.0 20:09:28 10° SW 20:14:55 47° NW 20:15:16 47° NW
Cosmos 2278 Rocket 3.7 20:12:50 10° NNW 20:15:25 27° NNW 20:15:25 27° NNW
Cosmos 2322 Rocket 4.2 20:17:40 10° W 20:22:04 23° NW 20:24:43 17° N
